THOR AGENA D R/B, 815

Orbit data source: Space-Track

THOR AGENA D R/B, 815 is space debris in SSO originally from a launch on Thu, 18 Jun 1964 UTC launched from the Air Force Western Test Range (AFWTR). Debris objects in space refer to the collection of defunct objects orbiting the Earth. Examples of debris include non-operational satellites, rocket bodies, and fragments generated from explosions, collisions, or faulty payload assembly.

Loading next visibility...
Identifier
815, 1964-031C
Orbit
SSO
Country
Flag of USUS
Related business
Manufacturer
LMSC
Mission
Spacecraft
Bus & Motor
AGENA D, Unknown motor
Mass
600 kg wet, 600 kg dry
Launch date (UTC)
1964-06-18 (62 years ago)
Launch vehicle
Unknown
Launch site
Air Force Western Test Range (AFWTR)
Object type
Payload
Rocket body
Debris
Shape & HBR
Unknown
Radar Cross Section
Large (>1 m²)

Expand to show TLE details & history
Last TLE update: 13 hours ago

TLE from 13 hours ago
0 THOR AGENA D R/B
1   815U 64031C   26035.38720919  .00000252  00000-0  12235-3 0  9998
2   815  99.8107 329.2767 0011083 316.2118  43.8179 14.28446979202045
Epoch: 2026-02-04T09:17Z
TLE epoch observation values (Epoch: 2026-02-04T09:17:34.874Z)
Latitude
-0.00008°
Longitude
55.32688°
Altitude
794.08 km
Speed
7.46 km/s
True Right ascension
21h 57m 06s
True Declination
0° 00' 00"
Sunlit
Object was in daylight at epoch
Visualization orbit readout
Latitude
Unknown
Longitude
Unknown
Altitude
Unknown
Speed
Unknown
Apparent Right ascension
Unknown
Apparent Declination
Unknown
Sunlit
N/A
Visualization observer readout
Local Sidereal Time
00:35:37
Azimuth
Unknown
Elevation
Unknown
Doppler factor
Unknown
Orbital elements
Apogee altitude
802.079 km
Perigee altitude
786.181 km
Semi-major axis
7,172.267 km
Eccentricity
0.00111
Inclination
99.8107°
RAAN
329.2767°
Arg. of periapsis
316.2118°
True anomaly
43.90592°
Mean anomaly
43.8179°
Eccentric anomaly
43.8619°
Mean motion
3.57321 °/min
Orbital period
100.75 mins
BSTAR
0.00012235
Loading maneuver chart data...
Computing Atmospheric mass density...
Loading historical data...
Loading historical data...
Loading historical data...
Loading historical data...
Loading historical data...
Loading historical data...
Loading historical data...
Other satellites on launch #31 in the year 1964 (1964-06-18 UTC)

Documentation

Showing up to 5 results
|